Weather History for Ukiah, CA

Change the Weather History Date:

Thursday, October 30, 2014

  Actual Average Record
Temperature  
Mean Temperature 64 °F 56 °F  
Max Temperature 77 °F 70 °F 91 °F (1949)
Min Temperature 51 °F 42 °F 27 °F (1972)
Degree Days  
Heating Degree Days 2 9  
Month to date heating degree days 157  
Since 1 July heating degree days 190  
Cooling Degree Days 0 0  
Month to date cooling degree days 19  
Year to date cooling degree days 832  
Growing Degree Days 14 (Base 50)    
Moisture  
Dew Point 52 °F    
Average Humidity 66    
Maximum Humidity 93    
Minimum Humidity 38    
Precipitation  
Precipitation 0.00 in 0.16 in 2.21 in (1956)
Month to date precipitation 1.07 2.00  
Year to date precipitation 18.39 25.97  
Since 1 July precipitation 1.76 2.59  
Snow  
Snow 0.00 in - - ()
Month to date snowfall 0.0  
Since 1 July snowfall 0.0  
Since 1 September snowfall 0.0  
Snow Depth 0.00 in    
Sea Level Pressure  
Sea Level Pressure 29.90 in    
Wind  
Wind Speed 2 mph (SSE)    
Max Wind Speed 12 mph    
Max Gust Speed 14 mph    
Visibility 10 miles    
Events Rain    
T = Trace of Precipitation, MM = Missing Value Source: NWS Daily Summary

Daily Weather History Graph

Daily Weather History Graph

Search for Another Location

Airport:

Trip Planner

Search our weather history database for the weather conditions in past years. The results will help you decide how hot, cold, wet, or windy it might be!

Date:

Astronomy

Oct. 30, 2014 Rise Set
Actual Time 7:38 AM PDT 6:14 PM PDT
Civil Twilight 7:10 AM PDT 6:41 PM PDT
Nautical Twilight 6:39 AM PDT 7:13 PM PDT
Astronomical Twilight 6:08 AM PDT 7:44 PM PDT
Moon 1:45 PM PDT (10/30) No Moon Set
Length of Visible Light 11h 30m
Length of Day
10h 35m
Waxing Crescent, 46% of the Moon is Illuminated
Oct 30
Waxing Crescent
Oct 30
First Quarter
Nov 6
Full
Nov 14
Last Quarter
Nov 22
New

Hourly Weather History & Observations

Time (PDT) Temp. Dew Point Humidity Pressure Visibility Wind Dir Wind Speed Gust Speed Precip Events Conditions
12:56 AM 55.0 °F 52.0 °F 89% 29.99 in 10.0 mi Calm Calm - N/A   Clear
1:56 AM 54.0 °F 51.1 °F 90% 29.97 in 10.0 mi Calm Calm - N/A   Clear
2:56 AM 55.0 °F 51.1 °F 86% 29.97 in 10.0 mi Calm Calm - N/A   Clear
3:56 AM 53.1 °F 50.0 °F 89% 29.96 in 10.0 mi Calm Calm - N/A   Clear
4:56 AM 54.0 °F 50.0 °F 86% 29.95 in 10.0 mi Calm Calm - N/A   Clear
5:56 AM 52.0 °F 48.9 °F 89% 29.95 in 10.0 mi Calm Calm - N/A   Clear
6:56 AM 53.1 °F 50.0 °F 89% 29.94 in 10.0 mi Calm Calm - N/A   Clear
7:56 AM 53.1 °F 50.0 °F 89% 29.94 in 10.0 mi Calm Calm - N/A   Clear
8:56 AM 54.0 °F 51.1 °F 90% 29.95 in 10.0 mi Calm Calm - N/A   Clear
9:56 AM 60.1 °F 54.0 °F 80% 29.94 in 10.0 mi Calm Calm - N/A   Clear
10:56 AM 62.1 °F 54.0 °F 75% 29.92 in 10.0 mi Calm Calm - N/A   Clear
11:56 AM 68.0 °F 55.0 °F 63% 29.91 in 10.0 mi Calm Calm - N/A   Clear
12:56 PM 72.0 °F 55.0 °F 55% 29.89 in 10.0 mi SSE 5.8 mph - N/A   Clear
1:56 PM 75.0 °F 51.1 °F 43% 29.86 in 10.0 mi SSE 8.1 mph - N/A   Clear
2:56 PM 75.9 °F 50.0 °F 40% 29.83 in 10.0 mi SSE 5.8 mph - N/A   Clear
3:56 PM 75.9 °F 52.0 °F 43% 29.83 in 10.0 mi SW 4.6 mph - N/A   Clear
4:56 PM 75.0 °F 48.0 °F 38% 29.81 in 10.0 mi South 8.1 mph - N/A   Clear
5:56 PM 71.1 °F 53.1 °F 53% 29.82 in 10.0 mi SW 9.2 mph - N/A   Clear
6:56 PM 66.0 °F 55.9 °F 70% 29.84 in 10.0 mi North 4.6 mph - N/A   Clear
7:56 PM 64.0 °F 55.9 °F 75% 29.85 in 10.0 mi Calm Calm - N/A   Clear
8:56 PM 61.0 °F 55.0 °F 81% 29.84 in 10.0 mi Calm Calm - N/A   Clear
9:56 PM 62.1 °F 53.1 °F 72% 29.86 in 10.0 mi SSE 6.9 mph - N/A   Overcast
10:56 PM 61.0 °F 55.0 °F 81% 29.88 in 7.0 mi NE 3.5 mph - 0.00 in Rain Light Rain
11:26 PM 60.1 °F 54.0 °F 80% 29.89 in 10.0 mi ESE 3.5 mph - 0.00 in   Mostly Cloudy
11:35 PM 60.1 °F 54.0 °F 80% 29.89 in 10.0 mi South 3.5 mph - 0.00 in   Mostly Cloudy
11:44 PM 60.1 °F 54.0 °F 80% 29.89 in 10.0 mi SSE 3.5 mph - 0.00 in   Mostly Cloudy
11:56 PM 60.1 °F 54.0 °F 80% 29.87 in 10.0 mi SE 4.6 mph - 0.00 in   Scattered Clouds